K8RLH Weather Reports


time (UTC)temp
C
wind
direction
speed
KPH
gust
KPH
rain 1hr
cm
rain 24hr
cm
rain mn
cm
humidity
%
barometer
mb
20260508213955 20 168 3.2 4.8 0.00 0.00 0.00 55 1016.1
20260508213453 20 165 3.2 4.8 0.00 0.00 0.00 55 1016.1
20260508212948 20 148 1.6 3.2 0.00 0.00 0.00 56 1016.0
20260508212445 20 164 0.0 1.6 0.00 0.00 0.00 56 1016.0
20260508211941 20 190 1.6 4.8 0.00 0.00 0.00 55 1016.1
20260508211437 20 160 1.6 3.2 0.00 0.00 0.00 55 1016.3
20260508210934 20 154 3.2 3.2 0.00 0.00 0.00 54 1016.3
20260508210431 20 152 0.0 3.2 0.00 0.00 0.00 53 1016.4
20260508205927 20 174 1.6 3.2 0.00 0.00 0.00 54 1016.5
20260508205424 21 165 3.2 3.2 0.00 0.00 0.00 52 1016.4
20260508204920 21 169 3.2 4.8 0.00 0.00 0.00 52 1016.4
20260508204418 20 152 1.6 3.2 0.00 0.00 0.00 52 1016.4
20260508203913 21 154 0.0 4.8 0.00 0.00 0.00 53 1016.5
20260508203410 21 170 0.0 4.8 0.00 0.00 0.00 52 1016.3
20260508202906 20 236 1.6 3.2 0.00 0.00 0.00 52 1016.4
20260508202403 21 172 3.2 3.2 0.00 0.00 0.00 51 1016.6
20260508201900 21 225 3.2 4.8 0.00 0.00 0.00 51 1016.7
20260508201357 21 149 0.0 1.6 0.00 0.00 0.00 51 1016.6
20260508200853 21 151 0.0 1.6 0.00 0.00 0.00 51 1016.8
20260508200350 21 241 3.2 6.4 0.00 0.00 0.00 51 1016.7
20260508195846 21 164 0.0 3.2 0.00 0.00 0.00 50 1016.8
20260508195343 21 153 1.6 4.8 0.00 0.00 0.00 49 1016.9
20260508194839 21 144 1.6 9.7 0.00 0.00 0.00 50 1016.9
20260508194336 21 144 1.6 3.2 0.00 0.00 0.00 51 1017.2
20260508193833 21 278 1.6 3.2 0.00 0.00 0.00 50 1017.2
20260508193330 21 202 3.2 11.3 0.00 0.00 0.00 50 1017.3
20260508192827 21 259 3.2 12.9 0.00 0.00 0.00 49 1017.3
20260508192323 21 244 1.6 6.4 0.00 0.00 0.00 49 1017.4
20260508191820 21 145 4.8 9.7 0.00 0.00 0.00 49 1017.4
20260508191318 20 266 3.2 6.4 0.00 0.00 0.00 50 1017.7
20260508190815 21 219 6.4 11.3 0.00 0.00 0.00 50 1017.6
20260508190311 21 191 1.6 3.2 0.00 0.00 0.00 50 1017.6
20260508185807 21 216 1.6 3.2 0.00 0.00 0.00 49 1017.7
20260508185306 21 152 0.0 6.4 0.00 0.00 0.00 48 1017.8
20260508184802 21 138 1.6 3.2 0.00 0.00 0.00 50 1017.6
20260508184259 21 178 0.0 1.6 0.00 0.00 0.00 48 1017.7
20260508183756 21 196 0.0 0.0 0.00 0.00 0.00 49 1017.8
20260508183252 21 46 1.6 3.2 0.00 0.00 0.00 48 1018.1
20260508182749 20 165 3.2 3.2 0.00 0.00 0.00 50 1018.3
20260508182245 20 240 4.8 6.4 0.00 0.00 0.00 51 1018.4
20260508181741 20 229 3.2 9.7 0.00 0.00 0.00 49 1018.2
20260508181238 20 265 3.2 6.4 0.00 0.00 0.00 47 1018.3
20260508180735 21 161 3.2 4.8 0.00 0.00 0.00 49 1018.1
20260508180232 20 160 4.8 6.4 0.00 0.00 0.00 48 1018.5
20260508175728 20 262 3.2 3.2 0.00 0.00 0.00 50 1018.3
20260508175225 20 154 1.6 4.8 0.00 0.00 0.00 50 1018.5
20260508174723 20 241 3.2 11.3 0.00 0.00 0.00 49 1018.6
20260508174220 20 179 0.0 3.2 0.00 0.00 0.00 50 1018.7
20260508173716 19 152 1.6 6.4 0.00 0.00 0.00 53 1018.7
20260508173212 20 153 3.2 9.7 0.00 0.00 0.00 54 1018.8
20260508172709 20 295 9.7 11.3 0.00 0.00 0.00 50 1018.8
20260508172206 20 188 3.2 3.2 0.00 0.00 0.00 53 1018.9
20260508171703 19 207 1.6 1.6 0.00 0.00 0.00 51 1018.9
20260508171159 20 265 6.4 9.7 0.00 0.00 0.00 50 1018.9
20260508170656 19 145 1.6 4.8 0.00 0.00 0.00 50 1019.1
20260508170154 20 273 6.4 11.3 0.00 0.00 0.00 49 1018.9
20260508165651 20 177 3.2 3.2 0.00 0.00 0.00 53 1019.2
20260508165147 20 233 4.8 14.5 0.00 0.00 0.00 50 1019.4
20260508164644 20 205 0.0 3.2 0.00 0.00 0.00 52 1019.3
20260508164141 20 123 1.6 6.4 0.00 0.00 0.00 53 1019.6
20260508163639 20 138 1.6 4.8 0.00 0.00 0.00 55 1019.5
20260508163136 20 242 0.0 4.8 0.00 0.00 0.00 52 1019.4
20260508162631 20 265 6.4 12.9 0.00 0.00 0.00 52 1019.6
20260508162129 18 220 1.6 1.6 0.00 0.00 0.00 53 1019.8
20260508161626 19 225 6.4 6.4 0.00 0.00 0.00 53 1019.7
20260508161123 18 170 3.2 4.8 0.00 0.00 0.00 55 1019.9
20260508160621 18 172 0.0 4.8 0.00 0.00 0.00 54 1019.9
20260508160119 19 165 3.2 6.4 0.00 0.00 0.00 52 1019.9
20260508155615 20 238 4.8 11.3 0.00 0.00 0.00 49 1019.7
20260508155112 20 279 3.2 6.4 0.00 0.00 0.00 52 1019.7
20260508154609 20 195 3.2 3.2 0.00 0.00 0.00 53 1020.0
20260508154106 20 141 0.0 0.0 0.00 0.00 0.00 53 1020.2
20260508153603 20 142 3.2 6.4 0.00 0.00 0.00 48 1020.2
20260508153059 20 172 1.6 3.2 0.00 0.00 0.00 49 1020.2
20260508152557 21 187 0.0 1.6 0.00 0.00 0.00 48 1020.3
20260508152058 20 140 0.0 0.0 0.00 0.00 0.00 52 1020.2
20260508151555 20 131 0.0 1.6 0.00 0.00 0.00 53 1020.6
20260508151052 18 137 0.0 4.8 0.00 0.00 0.00 52 1020.3
20260508150549 18 168 3.2 4.8 0.00 0.00 0.00 52 1020.3
20260508150045 18 164 3.2 4.8 0.00 0.00 0.00 52 1020.2
20260508145542 19 188 1.6 3.2 0.00 0.00 0.00 52 1020.2
20260508145038 18 160 1.6 3.2 0.00 0.00 0.00 53 1020.1
20260508144536 20 177 4.8 6.4 0.00 0.00 0.00 51 1019.9
20260508144033 20 101 0.0 4.8 0.00 0.00 0.00 53 1020.0
20260508143531 19 89 1.6 4.8 0.00 0.00 0.00 53 1019.9
20260508143027 18 55 1.6 3.2 0.00 0.00 0.00 56 1020.0
20260508142524 18 132 1.6 3.2 0.00 0.00 0.00 56 1019.9
20260508142020 18 73 1.6 3.2 0.00 0.00 0.00 56 1020.1
20260508141517 18 93 0.0 1.6 0.00 0.00 0.00 59 1020.2
20260508141015 17 143 1.6 3.2 0.00 0.00 0.00 61 1020.5
20260508140512 17 159 1.6 1.6 0.00 0.00 0.00 61 1020.6
20260508140008 17 101 0.0 4.8 0.00 0.00 0.00 63 1020.5
20260508135504 16 11 1.6 3.2 0.00 0.00 0.00 64 1020.5
20260508135000 16 127 0.0 1.6 0.00 0.00 0.00 69 1020.5
20260508134457 16 142 1.6 4.8 0.00 0.00 0.00 68 1020.5
20260508133953 16 123 0.0 1.6 0.00 0.00 0.00 72 1020.6
20260508133451 15 87 0.0 1.6 0.00 0.00 0.00 70 1020.5
20260508132947 15 58 0.0 1.6 0.00 0.00 0.00 70 1020.6
20260508132446 15 70 0.0 1.6 0.00 0.00 0.00 71 1020.5
20260508131942 15 71 0.0 3.2 0.00 0.00 0.00 71 1020.7
20260508131438 15 73 0.0 1.6 0.00 0.00 0.00 72 1020.6
20260508130935 15 104 0.0 3.2 0.00 0.00 0.00 72 1020.5
20260508130432 15 55 0.0 1.6 0.00 0.00 0.00 72 1020.5
20260508125927 15 118 1.6 3.2 0.00 0.00 0.00 72 1020.5
20260508125424 15 109 3.2 4.8 0.00 0.00 0.00 72 1020.1
20260508124921 14 105 0.0 1.6 0.00 0.00 0.00 74 1020.1
20260508124419 14 58 0.0 4.8 0.00 0.00 0.00 76 1020.0
20260508123917 13 333 0.0 3.2 0.00 0.00 0.00 78 1020.0
20260508123415 13 100 0.0 0.0 0.00 0.00 0.00 80 1019.9
20260508122911 13 124 0.0 0.0 0.00 0.00 0.00 83 1019.9
20260508122408 13 131 0.0 0.0 0.00 0.00 0.00 84 1019.6
20260508121905 12 144 0.0 0.0 0.00 0.00 0.00 88 1019.8
20260508121404 12 143 0.0 0.0 0.00 0.00 0.00 91 1019.8
20260508120901 11 145 0.0 0.0 0.00 0.00 0.00 92 1019.7
20260508120359 11 144 0.0 0.0 0.00 0.00 0.00 93 1019.6
20260508115856 11 144 0.0 0.0 0.00 0.00 0.00 94 1019.8
20260508115353 11 159 0.0 0.0 0.00 0.00 0.00 95 1019.7
20260508114849 11 155 0.0 0.0 0.00 0.00 0.00 95 1019.4
20260508114347 11 155 0.0 0.0 0.00 0.00 0.00 95 1019.5
20260508113843 11 155 0.0 0.0 0.00 0.00 0.00 96 1019.4
20260508113341 11 155 0.0 0.0 0.00 0.00 0.00 96 1019.3
20260508112838 11 155 0.0 0.0 0.00 0.00 0.00 96 1019.1
20260508112335 10 155 0.0 0.0 0.00 0.00 0.00 97 1019.2
20260508111831 10 155 0.0 0.0 0.00 0.00 0.00 96 1019.0
20260508111328 10 155 0.0 0.0 0.00 0.00 0.00 97 1018.7
20260508110826 10 155 0.0 0.0 0.00 0.00 0.00 96 1018.4
20260508110323 10 155 0.0 0.0 0.00 0.00 0.00 96 1018.4
20260508105823 10 155 0.0 0.0 0.00 0.00 0.00 96 1018.3
20260508105320 10 155 0.0 0.0 0.00 0.00 0.00 96 1018.1
20260508104817 10 155 0.0 0.0 0.00 0.00 0.00 96 1018.2
20260508104314 10 155 0.0 0.0 0.00 0.00 0.00 96 1018.1
20260508103811 10 155 0.0 0.0 0.00 0.00 0.00 96 1018.2
20260508103308 10 155 0.0 0.0 0.00 0.00 0.00 96 1018.1
20260508102806 10 155 0.0 0.0 0.00 0.00 0.00 96 1018.0
20260508102306 10 155 0.0 0.0 0.00 0.00 0.00 96 1017.8
20260508101800 10 155 0.0 0.0 0.00 0.00 0.00 96 1017.6
20260508101258 10 155 0.0 0.0 0.00 0.00 0.00 96 1017.8
20260508100755 10 155 0.0 0.0 0.00 0.00 0.00 96 1017.8
20260508100254 10 155 0.0 0.0 0.00 0.00 0.00 96 1017.7
20260508095749 10 155 0.0 0.0 0.00 0.00 0.00 96 1017.5
20260508095247 10 155 0.0 0.0 0.00 0.00 0.00 96 1017.5
20260508094743 10 155 0.0 0.0 0.00 0.00 0.00 96 1017.5
20260508094241 10 155 0.0 0.0 0.00 0.00 0.00 96 1017.3
20260508093737 10 155 0.0 0.0 0.00 0.00 0.00 96 1017.3
20260508093235 10 155 0.0 0.0 0.00 0.00 0.00 96 1017.3
20260508092732 10 155 0.0 0.0 0.00 0.00 0.00 96 1017.2
20260508092230 10 155 0.0 0.0 0.00 0.00 0.00 96 1017.3
20260508091728 10 155 0.0 0.0 0.00 0.00 0.00 96 1017.2
20260508091224 10 155 0.0 0.0 0.00 0.00 0.00 96 1017.3
20260508090722 10 155 0.0 0.0 0.00 0.00 0.00 95 1017.3
20260508090220 10 155 0.0 0.0 0.00 0.00 0.00 95 1017.1
20260508085716 10 155 0.0 0.0 0.00 0.00 0.00 95 1017.1
20260508085213 10 155 0.0 0.0 0.00 0.00 0.00 95 1017.1
20260508084709 10 155 0.0 0.0 0.00 0.00 0.00 95 1017.0
20260508084207 10 155 0.0 0.0 0.00 0.00 0.00 95 1016.8
20260508083704 10 155 0.0 0.0 0.00 0.00 0.00 95 1016.8
20260508083201 10 155 0.0 0.0 0.00 0.00 0.00 95 1016.8
20260508082656 10 155 0.0 0.0 0.00 0.00 0.00 95 1016.9
20260508082153 10 155 0.0 0.0 0.00 0.00 0.00 95 1017.0
20260508081651 10 155 0.0 0.0 0.00 0.00 0.00 95 1017.1
20260508081147 10 155 0.0 0.0 0.00 0.00 0.00 95 1017.0
20260508080645 10 156 0.0 0.0 0.00 0.00 0.00 94 1016.7
20260508080143 10 161 0.0 0.0 0.00 0.00 0.00 94 1016.7
20260508075639 10 161 0.0 0.0 0.00 0.00 0.00 94 1016.8
20260508075136 10 162 0.0 0.0 0.00 0.00 0.00 94 1016.9
20260508074634 10 161 0.0 0.0 0.00 0.00 0.00 94 1016.9
20260508074130 10 162 0.0 0.0 0.00 0.00 0.00 94 1016.9
20260508073628 11 162 0.0 0.0 0.00 0.00 0.00 93 1016.7
20260508073126 11 162 0.0 0.0 0.00 0.00 0.00 93 1016.8
20260508072621 11 162 0.0 0.0 0.00 0.00 0.00 93 1016.8
20260508072118 11 164 0.0 0.0 0.00 0.00 0.00 93 1016.9
20260508071616 11 164 0.0 0.0 0.00 0.00 0.00 93 1016.9
20260508071114 11 164 0.0 0.0 0.00 0.00 0.00 93 1016.8
20260508070611 11 164 0.0 0.0 0.00 0.00 0.00 93 1016.7
20260508070110 11 171 0.0 0.0 0.00 0.00 0.00 93 1017.0
20260508065606 11 171 0.0 0.0 0.00 0.00 0.00 93 1016.7
20260508065104 11 172 0.0 1.6 0.00 0.00 0.00 93 1016.6
20260508064602 11 89 0.0 0.0 0.00 0.00 0.00 92 1016.6
20260508064100 11 89 0.0 0.0 0.00 0.00 0.00 92 1016.7
20260508063556 11 89 0.0 0.0 0.00 0.00 0.00 92 1016.7
20260508063055 11 89 0.0 0.0 0.00 0.00 0.00 92 1016.6
20260508062552 11 89 0.0 0.0 0.00 0.00 0.00 92 1016.6
20260508062048 11 89 0.0 0.0 0.00 0.00 0.00 91 1016.5
20260508061546 11 89 0.0 0.0 0.00 0.00 0.00 91 1016.5
20260508061043 11 89 0.0 0.0 0.00 0.00 0.00 91 1016.4
20260508060540 11 89 0.0 0.0 0.00 0.00 0.00 91 1016.8
20260508060037 11 89 0.0 0.0 0.00 0.00 0.00 91 1016.6
20260508055533 12 89 0.0 0.0 0.00 0.00 0.00 91 1016.5
20260508055030 12 89 0.0 0.0 0.00 0.00 0.00 91 1016.6
20260508054526 12 89 0.0 0.0 0.00 0.00 0.00 91 1016.8
20260508054024 12 90 0.0 0.0 0.00 0.00 0.00 90 1016.8
20260508053520 12 91 0.0 0.0 0.00 0.00 0.00 89 1016.9
20260508053019 12 90 0.0 0.0 0.00 0.00 0.00 89 1016.7
20260508052515 12 78 0.0 0.0 0.00 0.00 0.00 88 1016.9
20260508052012 12 78 0.0 1.6 0.00 0.00 0.00 88 1016.8
20260508051508 12 75 0.0 0.0 0.00 0.00 0.00 87 1016.7
20260508051003 12 75 0.0 0.0 0.00 0.00 0.00 86 1016.7
20260508050500 12 73 0.0 0.0 0.00 0.00 0.00 86 1016.6
20260508045957 12 72 0.0 0.0 0.00 0.00 0.00 86 1016.7
20260508045454 13 72 0.0 0.0 0.00 0.00 0.00 85 1016.8
20260508044951 13 71 0.0 0.0 0.00 0.00 0.00 84 1016.5
20260508044449 13 70 0.0 0.0 0.00 0.00 0.00 84 1016.5
20260508043943 13 70 0.0 0.0 0.00 0.00 0.00 83 1016.5
20260508043442 13 109 0.0 0.0 0.00 0.00 0.00 83 1016.4
20260508042937 13 109 0.0 0.0 0.00 0.00 0.00 82 1016.3
20260508042436 13 225 0.0 0.0 0.00 0.00 0.00 82 1016.4
20260508041932 13 225 0.0 0.0 0.00 0.00 0.00 81 1016.4
20260508041429 13 225 0.0 0.0 0.00 0.00 0.00 80 1016.1
20260508040926 14 225 0.0 0.0 0.00 0.00 0.00 79 1016.1
20260508040423 15 225 0.0 0.0 0.00 0.00 0.00 78 1016.1
20260508035921 15 225 0.0 0.0 0.00 4.93 4.93 76 1016.4
20260508035417 15 225 0.0 0.0 0.00 4.93 4.93 76 1016.1
20260508034914 15 225 0.0 0.0 0.00 4.93 4.93 77 1015.9
20260508034411 15 225 0.0 0.0 0.00 4.93 4.93 76 1016.0
20260508033908 15 225 0.0 0.0 0.00 4.93 4.93 74 1016.1
20260508033406 15 225 0.0 0.0 0.00 4.93 4.93 74 1016.1
20260508032903 15 225 0.0 0.0 0.00 4.93 4.93 73 1016.0
20260508032401 15 226 0.0 0.0 0.00 4.93 4.93 72 1016.3
20260508031857 16 234 0.0 1.6 0.00 4.93 4.93 72 1016.1
20260508031354 16 235 1.6 3.2 0.00 4.93 4.93 72 1016.1
20260508030850 16 230 0.0 1.6 0.00 4.93 4.93 71 1016.1
20260508030347 16 229 0.0 0.0 0.00 4.93 4.93 71 1015.8
20260508025844 16 238 0.0 1.6 0.00 4.93 4.93 70 1015.7
20260508025341 16 239 0.0 0.0 0.00 4.93 4.93 69 1015.9
20260508024838 16 278 1.6 3.2 0.00 4.93 4.93 68 1015.6
20260508024334 16 236 0.0 1.6 0.00 4.93 4.93 68 1015.6
20260508023832 16 252 4.8 6.4 0.00 4.93 4.93 67 1015.5
20260508023328 17 258 3.2 6.4 0.00 4.93 4.93 67 1015.5
20260508022825 17 244 6.4 6.4 0.00 4.93 4.93 67 1015.2
20260508022321 17 287 3.2 6.4 0.00 4.93 4.93 66 1015.0
20260508021818 17 261 3.2 6.4 0.00 4.93 4.93 66 1015.1
20260508021314 17 241 3.2 6.4 0.00 4.93 4.93 67 1015.2
20260508020810 17 283 3.2 6.4 0.00 4.93 4.93 66 1015.0
20260508020308 17 243 6.4 6.4 0.00 4.93 4.93 65 1015.1
20260508015804 17 252 3.2 11.3 0.00 4.93 4.93 65 1015.1
20260508015305 17 255 6.4 6.4 0.00 4.93 4.93 64 1015.1
20260508014759 17 275 4.8 6.4 0.00 4.93 4.93 64 1014.9
20260508014256 17 275 6.4 11.3 0.00 4.93 4.93 63 1014.7
20260508013751 17 246 6.4 12.9 0.00 4.93 4.93 63 1014.8
20260508013248 17 266 3.2 6.4 0.00 4.93 4.93 64 1014.6
20260508012746 18 218 4.8 9.7 0.00 4.93 4.93 64 1014.3
20260508012242 18 245 6.4 11.3 0.00 4.93 4.93 64 1014.3
20260508011741 18 269 0.0 3.2 0.00 4.93 4.93 64 1014.4
20260508011238 18 262 4.8 6.4 0.00 4.93 4.93 63 1014.3
20260508010735 18 263 3.2 11.3 0.00 4.93 4.93 63 1014.1
20260508010233 18 258 3.2 11.3 0.00 4.93 4.93 63 1014.3
20260508005729 18 254 1.6 3.2 0.00 4.93 4.93 63 1013.9
20260508005226 18 243 1.6 9.7 0.00 4.93 4.93 63 1013.9
20260508004721 18 241 1.6 6.4 0.00 4.93 4.93 62 1013.8
20260508004218 19 282 3.2 4.8 0.00 4.93 4.93 62 1013.8
20260508003715 19 257 1.6 9.7 0.00 4.93 4.93 60 1013.5
20260508003212 19 352 1.6 6.4 0.00 4.93 4.93 60 1013.4
20260508002708 20 240 3.2 11.3 0.00 4.93 4.93 60 1013.3
20260508002206 20 280 6.4 9.7 0.00 4.93 4.93 60 1013.4
20260508001702 20 243 3.2 9.7 0.00 4.93 4.93 60 1013.2
20260508001157 20 258 8.0 11.3 0.00 4.93 4.93 60 1013.3
20260508000653 20 268 4.8 14.5 0.00 4.93 4.93 60 1013.1
20260508000151 20 223 3.2 11.3 0.00 4.93 4.93 61 1013.0
20260507235648 21 301 4.8 9.7 0.00 4.93 4.93 61 1012.8
20260507235145 21 254 6.4 14.5 0.00 4.93 4.93 60 1012.5
20260507234642 21 253 4.8 9.7 0.00 4.93 4.93 60 1012.7
20260507234132 21 239 6.4 14.5 0.00 4.93 4.93 60 1012.6
20260507233629 21 281 1.6 4.8 0.00 4.93 4.93 60 1012.7
20260507233128 21 281 1.6 6.4 0.00 4.93 4.93 60 1012.5
20260507232625 21 276 3.2 16.1 0.00 4.93 4.93 59 1012.4
20260507232121 21 259 3.2 6.4 0.00 4.93 4.93 59 1012.4
20260507231617 22 22 4.8 9.7 0.00 4.93 4.93 59 1012.2
20260507231115 22 290 6.4 11.3 0.00 4.93 4.93 60 1012.3
20260507230611 22 266 3.2 11.3 0.00 4.93 4.93 60 1011.9
20260507230108 22 245 4.8 11.3 0.00 4.93 4.93 60 1012.0
20260507225602 22 266 0.0 3.2 0.00 4.93 4.93 60 1011.9
20260507225059 23 284 3.2 9.7 0.00 4.93 4.93 60 1012.0
20260507224555 23 257 3.2 9.7 0.00 4.93 4.93 61 1011.8
20260507224052 23 334 3.2 11.3 0.00 4.93 4.93 60 1011.7
20260507223548 23 255 6.4 12.9 0.00 4.93 4.93 61 1011.6
20260507223045 23 263 6.4 16.1 0.00 4.93 4.93 60 1011.6
20260507222542 23 294 9.7 17.7 0.00 4.93 4.93 59 1011.5
20260507222038 23 266 4.8 14.5 0.00 4.93 4.93 61 1011.4
20260507221535 23 279 11.3 17.7 0.00 4.93 4.93 60 1011.3
20260507221032 23 235 11.3 22.5 0.00 4.93 4.93 60 1011.4
20260507220529 23 242 9.7 14.5 0.00 4.93 4.93 61 1011.3
20260507220026 23 229 9.7 16.1 0.00 4.93 4.93 60 1011.1
20260507215522 23 316 9.7 14.5 0.00 4.93 4.93 61 1011.3
20260507215020 23 226 9.7 12.9 0.00 4.93 4.93 61 1011.3
20260507214517 23 226 8.0 11.3 0.00 4.93 4.93 60 1011.3